sat.trackr.live / text

‹ back to catalog

STARLINK-5549

NORAD 56360 · 2023-058AV

PAYLOAD ACTIVE UNKNOWN

§ Identity

Operator
Country
US
Launch date
2023-04-27
Launch site
AFWTR
Launch vehicle
Mass (kg)
RCS (m²)

Purposes: comms

External: N2YO · Heavens-Above · Gunter

§ Orbital elements

Epoch: 2026-09-20T22:22:28.140096Z

Period
93.91 min
Inclination
97.2839°
Eccentricity
0.0001682
Mean motion
15.33439510 rev/d
Perigee alt
464.4 km
Apogee alt
466.7 km
Semi-major
6,843.7 km
B*
9.4423e-6
RAAN
260.7172°
Arg perigee
93.2167°
Mean anomaly
266.9269°
Rev number
18,770

§ Raw data

STARLINK-55491 56360U 23058AV  26263.93227014  .00000230  00000+0  94423-5 0  99962 56360  97.2839 260.7172 0001682  93.2167 266.9269 15.33439510187707

JSON: /api/v1/satellites/56360 · /tle

For live sub-satellite position, see the globe view (requires WebGL).

§ Visibility from observer

Set your observer location to see the next 7 days of passes ≥ 10°. The values pass through the URL so the page stays shareable.

No JS? Fill the form by hand. The geolocation button needs JavaScript.